Location: Gazon
(48.1318°N, 1.2708°W)
Time: 22:51:11
(UTC+00:00)

CZ-2C R/B - Pass Details

Date: 18 September 2020
Orbit: 785 x 870 km, 98.2° (Epoch: 25 October)

Event Time Altitude Azimuth Distance (km) Brightness Sun altitude
Rises 19:16:46 0° 19° (NNE) 3,412 5.8 -11.7°
Reaches altitude 10° 19:19:16 10° 26° (NNE) 2,484 5.0 -12.1°
Maximum altitude 19:24:31 42° 97° (E) 1,202 3.0 -13.0°
Drops below altitude 10° 19:29:47 10° 168° (SSE) 2,503 4.9 -13.8°
Sets 19:32:18 0° 175° (S) 3,441 5.6 -14.2°
